Location: Cora
(37.8239°N, 89.6704°W)
Time: 06:13:53
(UTC+00:00)

Daily predictions for brighter satellites

Satellite Brightness Start Highest point End
(mag) Time Altitude Azimuth Time Altitude Azimuth Time Altitude Azimuth
CBERS-1 4.0 12:02:01 10° N 12:07:08 76° WNW 12:12:13 10° SSW
Cosmos 1025 Rocket 3.3 12:04:44 10° SSW 12:08:54 47° W 12:13:07 10° N
Cosmos 2297 3.8 12:09:08 10° NNW 12:14:39 56° WSW 12:20:06 10° S
Cosmos 1674 Rocket 4.4 12:11:08 10° SW 12:14:58 29° WNW 12:18:50 10° NNW
Cosmos 1943 3.4 12:10:39 10° SW 12:16:03 49° WNW 12:21:30 10° NNE
Landsat 7 4.2 23:09:14 10° SE 23:13:32 39° ENE 23:17:51 10° N
Cosmos 1725 Rocket 4.4 23:08:18 10° SSW 23:14:31 70° W 23:20:48 10° N
Cosmos 2233 Rocket 4.0 23:09:28 10° S 23:15:44 81° E 23:22:04 10° N
Cosmos 1300 Rocket 3.7 23:12:31 10° S 23:16:55 83° W 23:21:18 10° N
CORIOLIS 4.1 23:14:29 10° SSE 23:19:49 72° ENE 23:25:09 10° N
Cosmos 407 Rocket 3.6 23:19:14 10° S 23:24:16 53° ESE 23:29:18 10° NNE
ISS -3.4 23:21:28 10° WSW 23:24:45 60° NW 23:28:04 10° NE
CZ-2D R/B 2.9 23:22:47 10° SSE 23:25:50 48° ENE 23:28:53 10° N
SL-12 R/B(2) 4.2 23:18:57 10° SSW 23:26:30 75° ESE 23:35:36 10° NE
Cosmos 1943 Rocket 2.4 23:23:15 10° S 23:28:41 53° ESE 23:34:07 10° NNE
OAO 3 Rocket 3.8 23:24:30 10° WSW 23:28:56 45° SSE 23:33:15 11° E
Cosmos 2278 Rocket 2.4 23:23:38 10° S 23:29:03 51° ESE 23:34:31 10° NNE
Cosmos 2082 Rocket 3.6 23:26:12 10° NNE 23:29:41 17° NE 23:33:06 10° E
Aureole 3 Rocket 3.2 23:28:24 10° SSE 23:31:07 26° E 23:33:43 10° NNE
IRS-1C 4.1 23:26:02 10° SSE 23:31:18 70° ENE 23:36:36 10° N
Cosmos 1975 Rocket 3.1 23:29:21 10° N 23:33:38 58° E 23:37:57 10° SSE
ATLAS 5 CENTAUR R/B 2.0 23:31:27 10° NNW 23:36:01 54° NE 23:41:37 10° SE
MOS 1 Rocket 3.4 23:35:43 10° SE 23:39:43 41° ENE 23:43:50 10° N
SAR-Lupe-1 4.0 23:36:28 10° SSE 23:40:01 88° ENE 23:43:36 10° NNW
COSMO-SKYMED 1 3.4 23:37:08 10° NE 23:40:40 27° E 23:44:11 10° SSE
USA 215 3.2 23:35:36 10° SE 23:42:07 77° NE 23:48:39 10° NW
SKYMED 2 3.8 23:40:52 10° NNE 23:45:04 47° E 23:49:14 10° S
Helios 1A Rocket 3.3 23:43:02 13° NE 23:45:32 29° E 23:48:31 10° SSE
Okean 1 Rocket 4.4 23:42:45 10° SE 23:45:44 18° E 23:46:31 17° ENE
RESURS DK-1 3.0 23:51:37 10° N 23:55:11 30° ENE 23:57:09 20° ESE
